�N����,����,�~����,�C��,���x,�C��,����,���ϕ���,�ő�u�ԕ���,�ő厞����,���˗�,�I�_���x,�n�����x,�ő啗���N��,DTYPE
"23/09/16","00:10",0.0,26.0,88.2,1008.6,333.7,1.3,2.4,335.6,0.00,23.9,26.2,"00:06:08",1
"23/09/16","00:20",0.0,25.9,88.0,1008.8,346.1,1.5,2.6,350.3,0.00,23.8,26.2,"00:13:52",1
"23/09/16","00:30",0.0,25.8,88.1,1008.8,342.0,1.5,2.4,333.3,0.00,23.7,26.1,"00:20:32",1
"23/09/16","00:40",0.0,25.7,88.3,1008.6,344.0,1.3,2.4,340.0,0.00,23.7,26.1,"00:33:04",1
"23/09/16","00:50",0.0,25.6,88.5,1009.0,337.1,1.2,1.9,335.3,0.00,23.6,26.2,"00:41:12",1
"23/09/16","01:00",0.0,25.3,88.7,1009.0,279.1,0.3,1.1,10.8,0.00,23.3,26.2,"00:50:08",1
"23/09/16","01:10",0.0,25.0,88.9,1008.8,332.8,0.3,1.3,332.0,0.00,23.1,26.2,"01:07:20",1
"23/09/16","01:20",0.0,24.9,89.2,1008.8,299.6,0.6,1.2,327.0,0.00,23.0,26.0,"01:10:40",1
"23/09/16","01:30",0.0,25.0,89.5,1008.6,303.2,0.8,1.8,336.2,0.00,23.2,26.1,"01:25:04",1
"23/09/16","01:40",0.0,25.1,89.7,1009.0,305.0,0.8,1.8,259.9,0.00,23.3,26.0,"01:31:04",1
"23/09/16","01:50",0.0,25.1,89.8,1009.0,307.6,0.8,1.8,337.3,0.00,23.3,26.0,"01:46:56",1
"23/09/16","02:00",0.0,25.0,89.8,1009.0,317.4,0.7,1.1,307.6,0.00,23.2,25.9,"01:54:32",1
"23/09/16","02:10",0.0,24.9,89.9,1009.5,308.2,0.5,1.3,356.0,0.00,23.2,26.2,"02:00:48",1
"23/09/16","02:20",0.0,24.7,90.0,1008.8,315.9,0.6,1.1,333.1,0.00,23.0,25.9,"02:14:24",1
"23/09/16","02:30",0.0,24.8,90.3,1009.0,302.9,0.8,1.4,326.1,0.00,23.1,25.8,"02:25:20",1
"23/09/16","02:40",0.0,24.8,90.5,1008.8,288.1,0.8,1.7,319.1,0.00,23.2,25.9,"02:34:48",1
"23/09/16","02:50",0.0,24.7,90.7,1009.3,316.5,0.8,1.9,329.0,0.00,23.1,25.8,"02:49:04",1
"23/09/16","03:00",0.0,24.7,90.8,1009.3,329.8,1.1,2.2,332.1,0.00,23.1,26.0,"02:51:44",1
"23/09/16","03:10",0.0,24.5,90.8,1009.0,272.6,0.5,1.3,332.6,0.00,22.9,25.9,"03:00:16",1
"23/09/16","03:20",0.0,24.2,91.0,1009.0,288.3,0.2,0.6,318.4,0.00,22.7,25.9,"03:12:40",1
"23/09/16","03:30",0.0,24.1,91.1,1008.8,317.8,0.8,1.2,331.8,0.00,22.6,25.8,"03:24:40",1
"23/09/16","03:40",0.0,24.1,91.3,1009.0,303.0,0.5,1.1,296.5,0.00,22.6,25.7,"03:34:24",1
"23/09/16","03:50",0.0,23.9,91.4,1008.8,304.0,0.3,1.0,329.8,0.00,22.5,25.7,"03:41:20",1
"23/09/16","04:00",0.0,23.7,91.6,1009.0,302.7,0.6,1.3,338.2,0.00,22.3,25.8,"03:59:12",1
"23/09/16","04:10",0.0,23.7,91.8,1009.0,329.5,1.0,1.2,336.6,0.00,22.3,25.7,"04:01:44",1
"23/09/16","04:20",0.0,23.7,91.9,1008.6,301.1,0.8,1.2,314.8,0.00,22.3,25.5,"04:11:12",1
"23/09/16","04:30",0.0,23.7,92.1,1008.6,294.7,0.8,1.1,299.9,0.00,22.4,25.4,"04:24:16",1
"23/09/16","04:40",0.0,23.8,92.3,1008.8,313.1,1.1,1.8,320.0,0.00,22.5,25.7,"04:34:00",1
"23/09/16","04:50",0.0,23.8,92.5,1009.0,315.7,1.0,1.6,333.1,0.00,22.6,25.4,"04:45:20",1
"23/09/16","05:00",0.0,23.6,92.7,1009.3,293.9,0.2,1.0,321.9,0.00,22.4,25.5,"04:50:24",1
"23/09/16","05:10",0.0,23.4,92.8,1009.0,178.9,0.2,0.8,258.3,0.00,22.2,25.5,"05:08:00",1
"23/09/16","05:20",0.0,23.4,93.0,1009.3,289.0,0.8,1.3,301.8,0.00,22.2,25.5,"05:13:04",1
"23/09/16","05:30",0.0,23.4,93.1,1009.3,300.0,0.8,1.6,313.9,0.00,22.3,25.4,"05:27:28",1
"23/09/16","05:40",0.0,23.3,93.3,1009.3,310.6,1.0,1.3,323.9,0.00,22.2,25.2,"05:36:40",1
"23/09/16","05:50",0.0,23.2,93.4,1009.3,321.7,0.7,1.1,333.8,0.00,22.1,25.4,"05:40:08",1
"23/09/16","06:00",0.0,23.2,93.5,1009.7,296.0,0.5,1.2,317.4,0.00,22.1,25.4,"05:58:48",1
"23/09/16","06:10",0.0,23.4,93.6,1009.5,288.0,0.3,1.1,305.1,0.00,22.3,25.4,"06:07:36",1
"23/09/16","06:20",0.0,23.9,93.7,1009.5,288.5,0.8,1.3,308.5,0.00,22.9,25.3,"06:18:40",1
"23/09/16","06:30",0.0,24.4,93.6,1009.5,342.0,0.8,1.4,326.0,0.01,23.3,25.1,"06:20:48",1
"23/09/16","06:40",0.0,25.0,93.5,1009.7,338.3,0.6,1.2,348.6,0.02,23.9,25.2,"06:33:52",1
"23/09/16","06:50",0.0,25.4,93.1,1009.7,332.3,0.6,1.1,349.2,0.03,24.2,25.3,"06:46:08",1
"23/09/16","07:00",0.0,25.8,92.9,1010.2,283.7,0.3,1.3,344.7,0.05,24.6,25.3,"06:50:32",1
"23/09/16","07:10",0.0,26.4,92.5,1009.7,185.8,0.1,0.8,116.0,0.07,25.1,25.5,"07:06:40",1
"23/09/16","07:20",0.0,26.4,91.6,1009.5,206.5,0.2,0.8,98.8,0.09,25.0,25.1,"07:17:28",1
"23/09/16","07:30",0.0,26.8,90.0,1009.0,195.5,0.5,1.0,205.2,0.11,25.1,25.3,"07:20:32",1
"23/09/16","07:40",0.0,27.7,87.1,1009.5,38.9,0.5,1.1,22.4,0.13,25.4,25.2,"07:31:36",1
"23/09/16","07:50",0.0,28.7,83.1,1010.0,90.6,0.5,1.6,124.6,0.15,25.6,25.2,"07:48:56",1
"23/09/16","08:00",0.0,29.3,78.4,1010.0,172.3,0.6,1.8,197.7,0.18,25.2,25.2,"07:56:08",1
"23/09/16","08:10",0.0,29.8,75.1,1010.2,132.3,0.7,1.4,112.1,0.20,25.0,25.4,"08:01:12",1
"23/09/16","08:20",0.0,30.1,73.1,1010.4,142.9,1.0,2.6,227.9,0.22,24.8,25.4,"08:11:52",1
"23/09/16","08:30",0.0,30.5,71.5,1010.2,146.4,1.0,1.9,115.4,0.25,24.8,25.3,"08:28:00",1
"23/09/16","08:40",0.0,30.5,71.2,1010.4,173.4,1.0,2.6,220.4,0.27,24.7,25.5,"08:36:00",1
"23/09/16","08:50",0.0,30.9,70.4,1010.7,146.5,0.7,1.8,151.8,0.29,24.9,25.3,"08:46:48",1
"23/09/16","09:00",0.0,31.0,69.0,1010.9,130.8,1.0,1.8,222.2,0.31,24.7,25.3,"08:52:08",1
"23/09/16","09:10",0.0,30.9,69.0,1010.9,163.6,1.3,2.2,194.2,0.33,24.6,25.5,"09:02:56",1
"23/09/16","09:20",0.0,31.0,69.1,1010.9,166.0,1.1,2.5,182.8,0.35,24.7,25.6,"09:18:56",1
"23/09/16","09:30",0.0,31.8,68.7,1010.7,130.5,1.0,2.0,92.7,0.36,25.4,25.6,"09:22:00",1
"23/09/16","09:40",0.0,31.5,68.2,1010.9,169.8,1.3,3.3,232.2,0.38,25.0,25.7,"09:32:24",1
"23/09/16","09:50",0.0,31.9,67.1,1010.9,202.5,1.0,2.2,214.5,0.40,25.1,25.7,"09:48:16",1
"23/09/16","10:00",0.0,31.9,66.9,1010.7,183.9,1.5,3.5,209.0,0.41,25.0,25.7,"09:51:28",1
"23/09/16","10:10",0.0,32.3,66.1,1010.7,185.4,1.3,3.1,150.2,0.43,25.2,25.9,"10:07:12",1
"23/09/16","10:20",0.0,32.7,66.1,1010.9,146.2,1.3,2.5,173.4,0.43,25.6,25.9,"10:12:16",1
"23/09/16","10:30",0.0,32.4,64.4,1010.4,176.6,1.6,4.0,204.9,0.44,24.9,25.9,"10:26:24",1
"23/09/16","10:40",0.0,32.3,64.3,1010.2,189.0,1.5,2.9,219.1,0.38,24.7,26.0,"10:39:12",1
"23/09/16","10:50",0.0,32.7,64.6,1010.0,168.2,1.5,2.9,208.0,0.46,25.2,26.2,"10:44:56",1
"23/09/16","11:00",0.0,32.7,63.6,1009.7,23.2,1.0,2.4,334.6,0.31,24.9,26.1,"10:51:04",1
"23/09/16","11:10",0.0,33.6,62.4,1009.5,139.2,1.0,2.2,121.2,0.48,25.5,26.3,"11:06:20",1
"23/09/16","11:20",0.0,33.6,61.1,1009.7,162.6,1.3,2.7,204.0,0.49,25.1,26.2,"11:14:24",1
"23/09/16","11:30",0.0,33.7,60.1,1010.0,161.0,1.6,3.7,157.0,0.50,24.9,26.4,"11:22:24",1
"23/09/16","11:40",0.0,34.2,58.7,1010.2,152.7,1.1,3.9,204.2,0.49,25.0,26.6,"11:39:28",1
"23/09/16","11:50",0.0,34.2,59.8,1010.0,184.5,1.7,4.0,192.8,0.50,25.3,26.6,"11:47:12",1
"23/09/16","12:00",0.0,34.5,58.9,1009.7,163.4,1.5,3.7,201.9,0.49,25.3,26.6,"11:50:48",1
"23/09/16","12:10",0.0,35.0,57.8,1010.0,178.2,1.1,2.2,201.9,0.50,25.5,26.8,"12:01:52",1
"23/09/16","12:20",0.0,34.9,56.0,1010.0,236.8,1.2,3.1,127.9,0.48,24.9,26.9,"12:10:08",1
"23/09/16","12:30",0.0,34.9,57.5,1009.7,159.4,1.7,3.9,172.2,0.49,25.3,26.9,"12:27:20",1
"23/09/16","12:40",0.0,35.1,56.8,1009.5,176.6,1.6,3.6,230.7,0.49,25.3,26.8,"12:32:40",1
"23/09/16","12:50",0.0,35.1,54.2,1009.5,137.2,1.2,2.8,141.2,0.47,24.5,27.0,"12:41:28",1
"23/09/16","13:00",0.0,35.5,52.4,1009.5,152.2,1.1,3.4,208.4,0.47,24.3,26.9,"12:58:48",1
"23/09/16","13:10",0.0,35.7,51.9,1009.7,146.7,1.1,2.8,211.8,0.48,24.3,27.2,"13:05:36",1
"23/09/16","13:20",0.0,35.7,53.9,1009.5,167.3,1.5,3.1,158.8,0.46,25.0,27.4,"13:11:28",1
"23/09/16","13:30",0.0,35.4,51.8,1009.5,195.6,1.5,3.6,216.3,0.40,24.0,27.4,"13:26:48",1
"23/09/16","13:40",0.0,36.2,50.6,1009.5,134.6,0.7,1.9,177.7,0.43,24.4,27.2,"13:31:52",1
"23/09/16","13:50",0.0,36.0,51.1,1009.0,217.8,1.2,3.4,226.9,0.41,24.3,27.7,"13:46:40",1
"23/09/16","14:00",0.0,35.5,51.4,1008.8,194.2,2.2,4.7,221.7,0.37,24.0,27.7,"13:56:48",1
"23/09/16","14:10",0.0,35.5,51.3,1008.6,215.5,1.7,3.6,222.9,0.36,23.9,27.7,"14:08:56",1
"23/09/16","14:20",0.0,35.2,51.9,1008.1,179.7,1.3,3.3,239.7,0.26,23.9,27.8,"14:16:00",1
"23/09/16","14:30",0.0,35.8,51.0,1008.3,145.3,1.1,2.7,210.1,0.31,24.1,27.7,"14:29:44",1
"23/09/16","14:40",0.0,36.3,50.5,1008.3,196.2,1.5,3.7,198.2,0.33,24.4,27.8,"14:30:56",1
"23/09/16","14:50",0.0,35.6,50.5,1008.6,200.7,1.2,3.9,198.3,0.19,23.8,27.8,"14:44:48",1
"23/09/16","15:00",0.0,35.2,52.3,1008.3,181.7,1.7,4.4,192.5,0.22,24.0,27.9,"14:56:56",1
"23/09/16","15:10",0.0,35.0,50.7,1007.8,193.5,1.7,3.4,207.3,0.20,23.3,28.0,"15:08:24",1
"23/09/16","15:20",0.0,34.8,53.0,1007.6,210.0,2.2,5.5,227.6,0.15,23.8,27.9,"15:18:40",1
"23/09/16","15:30",0.0,35.2,53.6,1007.6,231.3,1.6,4.0,236.7,0.17,24.4,28.0,"15:22:08",1
"23/09/16","15:40",0.0,35.3,51.9,1007.4,202.1,2.3,5.1,225.0,0.21,24.0,27.9,"15:36:40",1
"23/09/16","15:50",0.0,35.3,52.0,1007.4,226.5,2.2,5.4,227.4,0.18,24.0,27.9,"15:41:04",1
"23/09/16","16:00",0.0,35.1,51.4,1007.6,224.4,2.3,5.4,210.9,0.17,23.6,27.9,"15:50:02",1
"23/09/16","16:10",0.0,34.7,51.5,1007.4,235.2,2.5,4.1,228.1,0.14,23.3,28.0,"16:03:04",1
"23/09/16","16:20",0.0,34.6,52.0,1007.1,235.1,1.8,5.2,230.1,0.11,23.3,28.0,"16:10:24",1
"23/09/16","16:30",0.0,34.6,51.3,1007.1,228.2,1.5,3.7,203.7,0.09,23.1,27.9,"16:29:44",1
"23/09/16","16:40",0.0,34.3,51.5,1007.1,218.4,1.7,3.7,225.3,0.07,22.9,28.0,"16:31:20",1
"23/09/16","16:50",0.0,34.1,51.5,1007.4,239.2,1.1,3.1,249.1,0.05,22.7,28.0,"16:45:12",1
"23/09/16","17:00",0.0,33.8,50.7,1007.1,243.8,1.1,3.6,231.4,0.04,22.2,28.1,"16:54:40",1
"23/09/16","17:10",0.0,33.6,50.1,1006.9,283.9,1.0,2.2,0.0,0.02,21.8,27.9,"17:08:00",1
"23/09/16","17:20",0.0,33.2,50.5,1006.7,309.3,1.1,3.6,326.3,0.01,21.6,27.8,"17:12:56",1
"23/09/16","17:30",0.0,32.8,50.6,1006.4,331.9,1.2,4.0,348.3,0.00,21.2,27.9,"17:21:04",1
"23/09/16","17:40",0.0,31.9,52.7,1006.2,345.7,1.3,2.9,354.3,0.00,21.1,27.6,"17:38:16",1
"23/09/16","17:50",0.0,31.1,54.4,1005.7,353.6,1.6,3.6,342.2,0.00,20.9,27.7,"17:43:04",1
"23/09/16","18:00",0.0,30.9,54.9,1006.0,333.9,1.3,2.6,342.4,0.00,20.8,27.7,"17:54:08",1
"23/09/16","18:10",0.0,30.6,55.6,1005.7,331.4,1.0,1.9,328.6,0.00,20.7,27.6,"18:06:40",1
"23/09/16","18:20",0.0,30.3,56.0,1005.5,316.8,0.7,2.5,333.9,0.00,20.6,27.6,"18:18:32",1
"23/09/16","18:30",0.0,30.1,56.1,1005.7,328.9,1.0,3.2,348.2,0.00,20.4,27.6,"18:21:12",1
"23/09/16","18:40",0.0,29.9,56.8,1006.0,329.7,1.3,3.6,343.1,0.00,20.4,27.5,"18:38:24",1
"23/09/16","18:50",0.0,29.6,58.9,1005.5,339.6,1.3,3.3,348.1,0.00,20.8,27.3,"18:43:12",1
"23/09/16","19:00",0.0,29.0,60.9,1006.2,339.6,1.1,2.7,341.2,0.00,20.7,27.5,"18:52:40",1
"23/09/16","19:10",0.0,28.3,62.3,1006.4,346.8,1.2,2.5,351.7,0.00,20.4,27.3,"19:05:12",1
"23/09/16","19:20",0.0,28.4,62.7,1006.9,327.8,1.0,2.0,342.1,0.00,20.6,27.3,"19:13:04",1
"23/09/16","19:30",0.0,27.7,65.9,1007.4,317.9,0.6,1.7,346.5,0.00,20.8,27.2,"19:23:36",1
"23/09/16","19:40",0.0,26.7,68.4,1007.1,351.0,0.7,1.4,321.8,0.00,20.4,27.3,"19:33:44",1
"23/09/16","19:50",0.0,26.1,71.2,1007.6,349.7,0.6,1.2,339.8,0.00,20.5,27.1,"19:42:40",1
"23/09/16","20:00",0.0,26.0,74.3,1007.6,347.2,1.1,2.0,341.9,0.00,21.1,27.2,"19:58:16",1
"23/09/16","20:10",0.0,26.0,75.1,1007.4,348.5,1.2,2.1,340.2,0.00,21.3,26.8,"20:00:40",1
"23/09/16","20:20",0.0,26.0,74.6,1007.6,324.7,1.1,2.0,337.8,0.00,21.2,27.0,"20:11:12",1
"23/09/16","20:30",0.0,26.1,73.5,1008.1,323.6,1.5,3.4,318.3,0.00,21.0,27.0,"20:25:44",1
"23/09/16","20:40",0.0,26.0,73.7,1008.3,326.1,1.1,1.9,336.5,0.00,21.0,26.9,"20:39:36",1
"23/09/16","20:50",0.0,25.8,74.4,1008.1,318.3,0.8,1.4,311.6,0.00,20.9,26.9,"20:41:52",1
"23/09/16","21:00",0.0,25.5,74.6,1008.3,302.3,0.5,1.1,329.8,0.00,20.7,26.8,"20:53:44",1
"23/09/16","21:10",0.0,25.3,76.0,1008.1,265.7,0.5,1.7,249.4,0.00,20.8,26.8,"21:09:20",1
"23/09/16","21:20",0.0,25.4,76.8,1008.3,309.9,1.2,2.2,252.2,0.00,21.1,26.7,"21:10:32",1
"23/09/16","21:30",0.0,25.5,76.5,1008.6,333.5,1.1,2.5,337.1,0.00,21.1,26.6,"21:20:32",1
"23/09/16","21:40",0.0,25.5,76.6,1008.3,343.4,1.5,2.7,340.8,0.00,21.1,26.6,"21:38:00",1
"23/09/16","21:50",0.0,25.3,77.3,1008.6,344.2,1.3,2.8,335.1,0.00,21.1,26.5,"21:47:28",1
"23/09/16","22:00",0.0,25.2,78.0,1008.6,344.7,1.2,2.1,343.4,0.00,21.1,26.6,"21:51:44",1
"23/09/16","22:10",0.0,24.8,78.9,1008.1,334.7,0.8,1.4,354.8,0.00,20.9,26.7,"22:00:56",1
"23/09/16","22:20",0.0,24.5,79.9,1008.6,334.2,1.1,1.9,326.4,0.00,20.8,26.4,"22:12:08",1
"23/09/16","22:30",0.0,24.5,80.2,1008.6,327.2,0.8,1.4,350.4,0.00,20.9,26.4,"22:21:20",1
"23/09/16","22:40",0.0,24.3,80.6,1008.6,290.1,0.3,0.9,307.9,0.00,20.8,26.2,"22:34:56",1
"23/09/16","22:50",0.0,24.1,81.1,1008.8,289.5,0.8,1.7,343.4,0.00,20.7,26.3,"22:48:48",1
"23/09/16","23:00",0.0,24.4,80.9,1008.8,312.2,1.2,2.1,345.8,0.00,20.9,26.3,"22:55:12",1
"23/09/16","23:10",0.0,24.3,80.8,1008.6,297.6,0.8,1.4,320.6,0.00,20.8,26.2,"23:02:08",1
"23/09/16","23:20",0.0,24.3,81.1,1008.3,315.0,1.0,1.8,304.8,0.00,20.9,26.2,"23:19:28",1
"23/09/16","23:30",0.0,24.1,81.7,1008.8,343.3,0.6,1.6,338.2,0.00,20.8,26.1,"23:21:28",1
"23/09/16","23:40",0.0,23.9,82.4,1008.8,295.9,0.7,1.7,322.9,0.00,20.8,26.2,"23:35:52",1
"23/09/16","23:50",0.0,23.7,83.3,1008.6,327.8,0.8,1.6,336.0,0.00,20.7,26.1,"23:48:40",1
"23/09/16","24:00",0.0,23.3,84.0,1008.8,321.5,0.6,1.4,335.9,0.00,20.5,25.8,"23:51:36",1
